sat.trackr.live / text

‹ back to catalog

INTELSAT 11 (IS-11)

NORAD 32253 · 2007-044B

PAYLOAD ACTIVE UNKNOWN

§ Identity

Operator
Country
ITSO
Launch date
2007-10-05
Launch site
FRGUI
Launch vehicle
Mass (kg)
RCS (m²)
23.79

Purposes: comms

External: N2YO · Heavens-Above · Gunter

§ Orbital elements

Epoch: 2026-09-19T18:14:38.676768Z

Period
1,453.86 min
Inclination
3.8044°
Eccentricity
0.0007560
Mean motion
0.99046611 rev/d
Perigee alt
36,101.5 km
Apogee alt
36,165.7 km
Semi-major
42,511.7 km
B*
0.0000e+0
RAAN
77.4470°
Arg perigee
129.7956°
Mean anomaly
134.7965°
Rev number
6,938

§ Raw data

INTELSAT 11 (IS-11)1 32253U 07044B   26262.76016987  .00000071  00000+0  00000+0 0  99982 32253   3.8044  77.4470 0007560 129.7956 134.7965  0.99046611 69389

JSON: /api/v1/satellites/32253 · /tle

For live sub-satellite position, see the globe view (requires WebGL).

§ Visibility from observer

Set your observer location to see the next 7 days of passes ≥ 10°. The values pass through the URL so the page stays shareable.

No JS? Fill the form by hand. The geolocation button needs JavaScript.